Torna al catalogo

STARLINK-35471

AttivoComunicazioniVLEO
NORAD 65864·PAYLOAD·🇺🇸 United States

Lanciato Oct 3, 2025 da Vandenberg Space Force Base

Loading…

Prossimi Passaggi (prossime 24 ore)

TLE

AggiornatoSource: CelesTrak SupGP

Epoca: Sep 15, 2026, 03:29 UTC

1 65864C 25223L   26258.14562500  .00044436  00000+0  13129-2 0  2585
2 65864  53.1574 132.4609 0001187  78.3551  19.5439 15.34366646    13

Traccia STARLINK-35471 in tempo reale con AllMySat

Download on the App Store